Location: Unspecified
(0.0000°N, 0.0000°E)
Time: 12:01:15
(UTC+00:00)

Vanguard 2 Rocket - Pass Details

Date: 17 December 2018
Orbit: 556 x 3325 km, 32.9° (Epoch: 25 March)

Event Time Altitude Azimuth Distance (km) Brightness Sun altitude
Rises 00:04:27 0° 227° (SW) 6,650 11.5 -66.6°
Reaches altitude 10° 00:09:43 10° 222° (SW) 5,242 10.9 -66.4°
Enters shadow 00:13:13 18° 217° (SW) 4,278 10.3 -66.3°
Maximum altitude 00:22:59 49° 152° (SSE) 2,081 - -65.7°
Drops below altitude 10° 00:30:32 10° 79° (E) 3,070 - -65.2°
Sets 00:32:49 0° 73° (ENE) 3,765 - -65.0°
